{"data":{"norad_id":61763,"intl_designator":"2024-199AE","name":"SIT-HSE","alt_names":[],"object_type":"PAYLOAD","status":"ACTIVE","operator":null,"country":"CIS","launch_date":"2024-11-04","launch_site_code":"VOSTO","launch_vehicle":null,"mission":null,"orbit_class":"UNKNOWN","rcs_meters":null,"size_class":null,"mass_kg":null,"dimensions":null,"purposes":[],"wikipedia_slug":null,"has_3d_model":false,"image_url":null,"decayed_at":null,"tle_current":{"epoch":"2026-09-22T22:09:05.988672Z","epoch_age_seconds":92731,"freshness":"FRESH","line1":"1 61763U 24199AE  26265.92298598  .00036595  00000+0  45875-3 0  9990","line2":"2 61763  97.2785 144.1733 0001361 280.4552  79.6551 15.59673645152780","mean_motion":15.59673645,"eccentricity":0.0001361,"inclination_deg":97.2785,"raan_deg":144.1733,"arg_perigee_deg":280.4552,"mean_anomaly_deg":79.6551,"bstar":0.00045875,"rev_number":15278,"period_min":92.32700729517,"perigee_km":387.67990369765,"apogee_km":389.52180974224,"semimajor_km":6766.7378567199,"source":"CELESTRAK","updated_at":"2026-09-23T09:00:21.032826Z"}}}